Location: Miramichi City (Newcastle)
(46.9830°N, 65.5670°W)
Time: 21:16:49
(UTC-03:00)

Iridium 12 - Visible Passes

Search period start: 24 September 2016 00:00
Search period end: 04 October 2016 00:00
Orbit: 776 x 779 km, 86.4° (Epoch: 24 September)

Date Brightness Start Highest point End Pass type
(mag) Time Alt. Az. Time Alt. Az. Time Alt. Az.
24 Sep 8.6 20:55:40 10° NW 20:58:58 17° WNW 21:02:17 10° WSW visible
25 Sep 8.7 06:35:10 10° ESE 06:38:33 18° ENE 06:41:56 10° NE visible
25 Sep 7.7 20:21:19 10° NNW 20:25:46 29° W 20:30:12 10° SW visible
26 Sep 6.6 19:47:23 10° NNW 19:52:26 50° W 19:57:27 10° SSW visible
27 Sep 9.0 20:56:50 10° NW 20:58:50 12° WNW 21:00:50 10° W visible
28 Sep 8.3 06:34:20 10° SE 06:38:27 24° E 06:42:36 10° NNE visible
28 Sep 8.3 20:21:50 10° NNW 20:25:42 21° WNW 20:29:32 10° SW visible
29 Sep 8.9 06:02:37 10° ESE 06:05:17 14° ENE 06:07:57 10° NE visible
29 Sep 7.4 19:47:41 10° NNW 19:52:26 36° W 19:57:09 10° SSW visible
01 Oct 7.6 06:33:47 10° SE 06:38:25 33° E 06:43:03 10° NNE visible
01 Oct 8.8 20:22:38 10° NW 20:25:34 15° WNW 20:28:32 10° WSW visible
02 Oct 8.5 06:01:29 10° ESE 06:05:09 20° ENE 06:08:50 10° NNE visible
02 Oct 8.1 19:48:07 10° NNW 19:52:23 26° W 19:56:39 10° SW visible
03 Oct 9.1 05:30:31 10° E 05:32:02 11° ENE 05:33:33 10° NE visible
